[[{"header":{"parameterUnit":"m.s-1","parameterCategory":1,"la1":30.2991,"la2":30.254,"lo1":-89.0895,"lo2":-89.0444,"dx":0.0017,"dy":0.0017,"nx":28,"ny":28,"refTime":"2022-12-16T09:00:00:Z","depth":0,"parameterNumber":2,"parameterNumberName":"U-component_of_WINDS"},"data":[0,0,0,0,0,0,0,0,0,0,0,0,0,0,0,0,0,0,0,0,0,0,0,0,0,0,0,0,0,0,0,0,0,0,0,0,0,0,0,0,0,0,0,0,0,0,0,0,0,0,0,0,0,0,0,0,0,0,-0.8373,-0.8374,0,-0.8409,-0.841,-0.841,-0.8364,-0.8362,-0.836,-0.8359,-0.8399,-0.8402,-0.8405,0,0,0,0,0,0,0,0,0,0,0,0,0,-0.8266,-0.8269,-0.8373,-0.8374,-0.8374,-0.8409,-0.841,-0.841,-0.8364,-0.8362,-0.836,-0.8358,-0.8399,-0.8402,-0.8405,0,0,0,0,0,0,0,0,0,0,0,0,0,-0.8309,-0.8269,-0.8373,-0.8355,-0.8354,-0.8409,-0.841,-0.841,-0.8365,-0.8362,-0.836,-0.8357,-0.8398,-0.8401,-0.8405,-0.8481,0,0,-0.8418,-0.8419,0,0,0,0,0,0,0,0,-0.8306,-0.8313,-0.8357,-0.8357,-0.8355,-0.8379,-0.8387,-0.8434,-0.8365,-0.8361,-0.8359,-0.8356,-0.8395,-0.8399,-0.8412,-0.8483,-0.8485,-0.8418,-0.842,-0.8422,-0.8423,0,0,0,0,0,0,0,-0.8304,-0.8311,-0.8388,-0.8358,-0.8357,-0.8346,-0.8349,-0.8396,-0.8392,-0.8361,-0.8358,-0.8362,-0.8394,-0.8408,-0.8412,-0.8485,-0.8418,-0.8421,-0.8424,-0.8425,-0.8619,-0.8622,0,0,0,0,0,0,-0.8302,-0.8309,-0.8386,-0.8389,-0.8324,-0.835,-0.8354,-0.8374,-0.8391,-0.8391,-0.8364,-0.836,-0.8402,-0.8408,-0.8413,-0.8503,-0.8422,-0.8426,-0.8428,-0.8616,-0.862,-0.8623,0,0,0,0,0,0,-0.83,-0.831,-0.8385,-0.8348,-0.8357,-0.8355,-0.8378,-0.8376,-0.839,-0.8394,-0.8393,-0.8379,-0.84,-0.8408,-0.8464,-0.8504,-0.8428,-0.8431,-0.8613,-0.8617,-0.8621,-0.8682,0,0,0,0,0,0,-0.8297,-0.8309,-0.8338,-0.8349,-0.8359,-0.8435,-0.8381,-0.8379,-0.8397,-0.8391,-0.8407,-0.8408,-0.8399,-0.8458,-0.8468,-0.8508,-0.8434,-0.861,-0.8615,-0.862,-0.8677,-0.8688,-0.8698,0,0,0,0,0,-0.8294,-0.8354,-0.8339,-0.8349,-0.8394,-0.8437,-0.8443,-0.8431,-0.84,-0.8429,-0.8431,-0.8407,-0.8497,-0.8464,-0.8475,-0.8516,-0.8607,-0.8613,-0.8619,-0.8672,-0.8686,-0.8697,0,0,0,0,0,0,-0.835,-0.8356,-0.8339,-0.8405,-0.8421,-0.8429,-0.8465,-0.8446,-0.8471,-0.8465,-0.845,-0.8454,-0.8514,-0.852,-0.8484,-0.859,-0.8547,-0.8556,-0.8584,-0.8597,-0.8607,-0.8605,-0.8438,0,0,0,0,0,-0.8369,-0.8403,-0.8406,-0.8464,-0.8473,-0.8468,-0.8486,-0.8475,-0.8491,-0.8498,-0.8504,-0.8522,-0.8553,-0.8575,-0.8605,-0.8677,-0.868,-0.871,-0.8721,-0.8729,-0.8737,-0.8775,-0.8789,-0.8643,-0.8643,-0.8643,0,0,-0.8411,-0.8418,-0.8441,-0.8476,-0.8487,-0.8522,-0.8474,-0.8514,-0.854,-0.8504,-0.8557,-0.8562,-0.8581,-0.8645,-0.8674,-0.8653,-0.8778,-0.8737,-0.8744,-0.8748,-0.8783,-0.8797,-0.8809,-0.8647,-0.8646,-0.8646,0,0,-0.8505,-0.8514,-0.8563,-0.8574,-0.8591,-0.8586,-0.8598,-0.8609,-0.8611,-0.8663,-0.8637,-0.8668,-0.8724,-0.8738,-0.8752,-0.8849,-0.8829,-0.8859,-0.8915,-0.8952,-0.8963,-0.8973,-0.9008,-0.9021,-0.8867,-0.8867,-0.8867,0,-0.8556,-0.8608,-0.8591,-0.8632,-0.8649,-0.8615,-0.8665,-0.8677,-0.8703,-0.8715,-0.8691,-0.8759,-0.8769,-0.8835,-0.8859,-0.8872,-0.8885,-0.8858,-0.8963,-0.8973,-0.8982,-0.9015,-0.9028,-0.8871,-0.8871,-0.887,-0.887,0,-0.8669,-0.8705,-0.8742,-0.8767,-0.8787,-0.8832,-0.8823,-0.8845,-0.8832,-0.883,-0.8884,-0.8894,-0.8925,-0.894,-0.8928,-0.9005,-0.8991,-0.8965,-0.8922,-0.9,-0.9031,-0.9043,-0.8876,-0.8875,-0.8874,-0.8873,0,0,-0.8802,-0.8814,-0.8828,-0.8838,-0.8853,-0.8881,-0.8925,-0.8953,-0.8973,-0.8991,-0.9028,-0.9075,-0.905,-0.9066,-0.9055,-0.9088,-0.9164,-0.9057,-0.9057,-0.9077,-0.9249,-0.927,-0.9285,-0.9149,-0.9152,-0.9154,-0.9248,0,-0.8896,-0.8971,-0.8956,-0.903,-0.9063,-0.9031,-0.9069,-0.9082,-0.9081,-0.911,-0.9109,-0.9142,-0.9107,-0.9116,-0.9147,-0.9148,-0.9199,-0.9141,-0.9184,-0.9186,-0.9182,-0.9301,-0.9323,-0.9412,-0.926,-0.9262,-0.9263,0,-0.9018,-0.9039,-0.9115,-0.9123,-0.9136,-0.9171,-0.9195,-0.9223,-0.9237,-0.9234,-0.9251,-0.9233,-0.9277,-0.9232,-0.9292,-0.9253,-0.9269,-0.9272,-0.9275,-0.928,-0.923,-0.931,-0.944,-0.9453,-0.9282,-0.9281,-0.9279,0,-0.9108,-0.9155,-0.9207,-0.9216,-0.9227,-0.9252,-0.9257,-0.9269,-0.9287,-0.9308,-0.9319,-0.9346,-0.9361,-0.9382,-0.9372,-0.934,-0.9434,-0.9388,-0.9433,-0.9434,-0.9456,-0.9455,-0.9592,-0.9465,-0.9465,-0.9465,-0.9464,0,-0.9216,-0.9264,-0.9247,-0.9279,-0.9332,-0.9314,-0.9367,-0.9369,-0.9379,-0.9411,-0.9384,-0.9415,-0.9399,-0.9429,-0.9421,-0.9472,-0.9479,-0.9478,-0.9476,-0.9481,-0.9481,-0.9493,-0.9487,-0.9468,-0.9467,-0.9467,-0.9466,0,-0.9326,-0.9317,-0.9371,-0.9375,-0.9378,-0.9416,-0.9421,-0.9451,-0.9446,-0.9487,-0.9496,-0.949,-0.9523,-0.9515,-0.9551,-0.9546,-0.961,-0.96,-0.9605,-0.9603,-0.9649,-0.9645,-0.9798,-0.9818,-0.9678,-0.9679,-0.968,0,-0.9397,-0.9433,-0.944,-0.9459,-0.9466,-0.9497,-0.9515,-0.9498,-0.9517,-0.9535,-0.9563,-0.9593,-0.9617,-0.9671,-0.9671,-0.9699,-0.9689,-0.9741,-0.9693,-0.9697,-0.969,-0.9689,-0.9692,-0.9751,-0.9752,-0.9754,-0.9755,0,-0.9523,-0.9516,-0.9541,-0.9565,-0.9586,-0.9604,-0.962,-0.9637,-0.9621,-0.9645,-0.9677,-0.9695,-0.9731,-0.9762,-0.9787,-0.9793,-0.9772,-0.9769,-0.9781,-0.9788,-0.979,-0.979,-0.9632,-0.9766,-0.9765,-0.9764,-0.9764,-0.9763,-0.9616,-0.9646,-0.9656,-0.9685,-0.9694,-0.9709,-0.9737,-0.9736,-0.9762,-0.979,-0.9778,-0.9816,-0.9828,-0.9858,-0.9868,-0.9897,-0.9878,-0.9895,-0.99,-0.9904,-0.991,-0.9784,-0.9901,-0.9901,-0.9901,-0.9901,-0.99,0,-0.9741,-0.9745,-0.9772,-0.9794,-0.9816,-0.9792,-0.9808,-0.9829,-0.9862,-0.9874,-0.9897,-0.9934,-0.9963,-0.9964,-0.9991,-1.0015,-1.0006,-1.0023,-1.0021,-1.0023,-0.9926,-0.9913,-1.0029,-1.0029,-1.0029,-1.0029,-1.0029,-1.0029,-0.9809,-0.9858,-0.9852,-0.9906,-0.991,-0.9945,-0.9957,-0.997,-0.998,-1.0022,-1.0045,-1.0045,-1.0053,-1.008,-1.0105,-1.0105,-1.0116,-1.0137,-1.0133,-1.0043,-1.003,-1.0018,-1.0006,-1.014,-1.014,-1.0228,-1.0229,-1.0229]},{"header":{"parameterUnit":"m.s-1","parameterCategory":1,"la1":30.2991,"la2":30.254,"lo1":-89.0895,"lo2":-89.0444,"dx":0.0017,"dy":0.0017,"nx":28,"ny":28,"refTime":"2022-12-16T09:00:00:Z","depth":0,"parameterNumber":3,"parameterNumberName":"V-component_of_WINDS"},"data":[0,0,0,0,0,0,0,0,0,0,0,0,0,0,0,0,0,0,0,0,0,0,0,0,0,0,0,0,0,0,0,0,0,0,0,0,0,0,0,0,0,0,0,0,0,0,0,0,0,0,0,0,0,0,0,0,0,0,-6.371,-6.371,0,-6.3779,-6.378,-6.378,-6.369,-6.3687,-6.3684,-6.3681,-6.3747,-6.3752,-6.3757,0,0,0,0,0,0,0,0,0,0,0,0,0,-6.3494,-6.3499,-6.3709,-6.371,-6.3711,-6.3779,-6.378,-6.3781,-6.3691,-6.3687,-6.3683,-6.3679,-6.3746,-6.3751,-6.3757,0,0,0,0,0,0,0,0,0,0,0,0,0,-6.3578,-6.35,-6.3709,-6.3675,-6.3672,-6.3779,-6.378,-6.3781,-6.3692,-6.3687,-6.3682,-6.3677,-6.3744,-6.3751,-6.3758,-6.39,0,0,-6.378,-6.3783,0,0,0,0,0,0,0,0,-6.3573,-6.3586,-6.3679,-6.3677,-6.3675,-6.3721,-6.3728,-6.3821,-6.3693,-6.3684,-6.3681,-6.3675,-6.3742,-6.3749,-6.3773,-6.3903,-6.3906,-6.3781,-6.3785,-6.3788,-6.379,0,0,0,0,0,0,0,-6.3568,-6.3582,-6.3737,-6.368,-6.3678,-6.3654,-6.366,-6.3745,-6.374,-6.3685,-6.3678,-6.3688,-6.374,-6.3766,-6.3774,-6.3907,-6.3781,-6.3787,-6.3791,-6.3794,-6.4156,-6.4161,0,0,0,0,0,0,-6.3567,-6.3578,-6.3734,-6.3739,-6.3611,-6.3662,-6.3669,-6.3711,-6.3738,-6.3738,-6.3692,-6.3683,-6.3756,-6.3765,-6.3776,-6.3943,-6.3788,-6.3795,-6.3799,-6.4151,-6.4157,-6.4163,0,0,0,0,0,0,-6.3562,-6.3582,-6.3732,-6.3657,-6.3674,-6.3671,-6.3719,-6.3715,-6.3741,-6.3744,-6.3742,-6.372,-6.3753,-6.3766,-6.387,-6.3944,-6.3798,-6.3805,-6.4145,-6.4153,-6.416,-6.428,0,0,0,0,0,0,-6.3557,-6.3581,-6.3636,-6.3659,-6.3679,-6.3827,-6.3723,-6.372,-6.3754,-6.3744,-6.377,-6.3769,-6.375,-6.386,-6.3877,-6.3952,-6.381,-6.4138,-6.4148,-6.4158,-6.4269,-6.4291,-6.4309,0,0,0,0,0,-6.3549,-6.3666,-6.3639,-6.3658,-6.3748,-6.3831,-6.3842,-6.3819,-6.3761,-6.3815,-6.3817,-6.3769,-6.3934,-6.3871,-6.389,-6.3968,-6.4133,-6.4145,-6.4157,-6.426,-6.4287,-6.4309,0,0,0,0,0,0,-6.365,-6.3668,-6.3639,-6.3767,-6.3798,-6.3816,-6.3884,-6.3848,-6.3895,-6.3883,-6.385,-6.3857,-6.3968,-6.3978,-6.3908,-6.4106,-6.4023,-6.404,-6.4095,-6.4121,-6.414,-6.4135,-6.3816,0,0,0,0,0,-6.3688,-6.3756,-6.3767,-6.3879,-6.3896,-6.3888,-6.3923,-6.3902,-6.3933,-6.3945,-6.3955,-6.3985,-6.4043,-6.4083,-6.4137,-6.427,-6.4274,-6.4333,-6.4353,-6.4369,-6.4384,-6.4454,-6.448,-6.4202,-6.4202,-6.4202,0,0,-6.3765,-6.3783,-6.3828,-6.39,-6.3921,-6.3991,-6.39,-6.3977,-6.4027,-6.3956,-6.4056,-6.4064,-6.4095,-6.4215,-6.4268,-6.4227,-6.4461,-6.4385,-6.4398,-6.4403,-6.4469,-6.4495,-6.4518,-6.421,-6.4209,-6.4207,0,0,-6.3942,-6.3963,-6.4058,-6.4082,-6.4117,-6.4111,-6.4134,-6.4157,-6.416,-6.4259,-6.4208,-6.4266,-6.4368,-6.4392,-6.4418,-6.4603,-6.456,-6.4622,-6.4726,-6.4795,-6.4817,-6.4836,-6.4901,-6.4925,-6.4636,-6.4636,-6.4636,0,-6.4033,-6.4137,-6.4111,-6.4193,-6.4225,-6.4165,-6.426,-6.4284,-6.4335,-6.4357,-6.4311,-6.4437,-6.4454,-6.4577,-6.4623,-6.4646,-6.467,-6.4618,-6.4816,-6.4835,-6.4853,-6.4914,-6.4939,-6.4643,-6.4643,-6.4642,-6.4641,0,-6.4247,-6.432,-6.4392,-6.4444,-6.4484,-6.4572,-6.4558,-6.4601,-6.4577,-6.4575,-6.4676,-6.4694,-6.4751,-6.4778,-6.4755,-6.4899,-6.4872,-6.4822,-6.4738,-6.4887,-6.4944,-6.4968,-6.4654,-6.4651,-6.4649,-6.4647,0,0,-6.4489,-6.4526,-6.4552,-6.4575,-6.4609,-6.4663,-6.4747,-6.4804,-6.4841,-6.4878,-6.4946,-6.5034,-6.4987,-6.5016,-6.4995,-6.5056,-6.52,-6.4997,-6.4997,-6.5033,-6.5358,-6.5395,-6.5423,-6.5172,-6.5176,-6.5179,-6.5355,0,-6.4665,-6.4813,-6.4792,-6.4933,-6.4999,-6.4943,-6.5016,-6.5044,-6.5044,-6.5099,-6.5098,-6.516,-6.5094,-6.5112,-6.5169,-6.517,-6.5264,-6.5157,-6.5233,-6.5236,-6.5227,-6.5453,-6.5493,-6.5657,-6.5377,-6.5381,-6.5384,0,-6.489,-6.4936,-6.5085,-6.5108,-6.5134,-6.5201,-6.525,-6.5304,-6.5333,-6.5329,-6.5362,-6.5329,-6.5411,-6.5327,-6.5439,-6.5367,-6.5396,-6.5402,-6.5407,-6.5413,-6.5319,-6.5464,-6.5709,-6.5734,-6.5419,-6.5416,-6.5413,0,-6.5051,-6.515,-6.5251,-6.5272,-6.5301,-6.5349,-6.5363,-6.5388,-6.5423,-6.5466,-6.5488,-6.5539,-6.5567,-6.5607,-6.5588,-6.5529,-6.5703,-6.5617,-6.57,-6.5701,-6.5739,-6.5737,-6.5992,-6.576,-6.576,-6.5759,-6.5759,0,-6.5249,-6.5341,-6.5323,-6.5386,-6.5487,-6.5461,-6.5562,-6.5569,-6.5592,-6.5653,-6.5607,-6.5665,-6.5638,-6.5693,-6.5679,-6.5773,-6.5786,-6.5784,-6.5779,-6.5788,-6.5788,-6.5806,-6.5794,-6.5766,-6.5764,-6.5763,-6.5762,0,-6.5445,-6.5437,-6.5543,-6.5563,-6.557,-6.5644,-6.566,-6.5717,-6.5714,-6.5792,-6.5808,-6.5803,-6.5866,-6.5851,-6.592,-6.591,-6.6028,-6.6009,-6.6019,-6.6014,-6.6098,-6.609,-6.6373,-6.6408,-6.6154,-6.6157,-6.6159,0,-6.5572,-6.5642,-6.5669,-6.5708,-6.5726,-6.5789,-6.5824,-6.5801,-6.584,-6.5879,-6.5931,-6.599,-6.6037,-6.614,-6.614,-6.6192,-6.6173,-6.6269,-6.6181,-6.6187,-6.6174,-6.6169,-6.6176,-6.6287,-6.6289,-6.6292,-6.6294,0,-6.5797,-6.579,-6.5844,-6.5897,-6.5941,-6.5981,-6.6017,-6.605,-6.6029,-6.6075,-6.614,-6.6176,-6.6246,-6.6305,-6.6353,-6.6365,-6.6326,-6.6322,-6.6343,-6.6353,-6.6355,-6.6354,-6.6066,-6.6315,-6.6313,-6.6311,-6.631,-6.6309,-6.5962,-6.6021,-6.605,-6.6111,-6.6136,-6.617,-6.6225,-6.6229,-6.6283,-6.6339,-6.6322,-6.6395,-6.6421,-6.6482,-6.65,-6.6556,-6.652,-6.6551,-6.6559,-6.6567,-6.6577,-6.6347,-6.6565,-6.6564,-6.6563,-6.6563,-6.6562,0,-6.6184,-6.62,-6.6257,-6.6308,-6.6356,-6.6317,-6.6354,-6.6396,-6.6462,-6.6491,-6.6537,-6.6611,-6.6667,-6.6673,-6.6726,-6.6769,-6.6753,-6.6784,-6.678,-6.6783,-6.6607,-6.6583,-6.6797,-6.6797,-6.6797,-6.6797,-6.6797,-6.6797,-6.6305,-6.6403,-6.6399,-6.6508,-6.6522,-6.6596,-6.662,-6.665,-6.6673,-6.6758,-6.6806,-6.6809,-6.6828,-6.6882,-6.6932,-6.6932,-6.6953,-6.6991,-6.6984,-6.6819,-6.6796,-6.6774,-6.675,-6.6996,-6.6996,-6.7155,-6.7157,-6.7158]}]]